Regional Weather Roundup
Issued by NWS San Diego, CA

Home | Current Version | Previous Version | Text Only | Print | Product List | Glossary On
Versions: 1 2 3 4 5 6 7 8 9 10 11 12 13 14 15 16 17 18 19 20 21 22 23 24 25 26 27 28 29 30 31 32 33 34 35 36 37 38 39 40 41 42 43 44 45 46 47 48 49 50
000
ASUS46 KSGX 232011
RWRSGX

SAN DIEGO HOURLY WEATHER ROUNDUP
NATIONAL WEATHER SERVICE SAN DIEGO CA
100 PM PDT THU MAR 23 2017

NOTE: "FAIR" INDICATES FEW OR NO CLOUDS BELOW 12,000 FEET WITH NO
SIGNIFICANT WEATHER AND/OR OBSTRUCTIONS TO VISIBILITY.

CAZ042-043-060-061-PZZ750-775-232100-

GREATER SAN DIEGO AREA

CITY           SKY/WX    TMP DP  RH WIND       PRES   REMARKS
SAN DIEGO AP   MOSUNNY   66  43  43 W13       30.19R
NATIONAL CITY    N/A     64  51  62 SW12      30.18R
CHULA VISTA      N/A     64  52  64 W12       30.10R
IMPERIAL BEACH MOSUNNY   63  48  58 W14       30.19R
BROWN FIELD    PTSUNNY   62  49  62 W12G17    30.17S
MIRAMAR MCAS   MOSUNNY   67  46  47 W8        30.16R
MONTGOMERY FLD PTSUNNY   64  44  48 W10G17    30.16S

$$

NORTH SAN DIEGO COUNTY

CITY           SKY/WX    TMP DP  RH WIND       PRES   REMARKS
CAMP PENDLETON MOSUNNY   65  48  54 W10       30.15R
OCEANSIDE AP   SUNNY     65  49  56 W15       30.15R
OCEANSIDE HBR    N/A     62  49  62 NW8       30.18S
VISTA            N/A     61  49  63 W3        30.13S
CARLSBAD       SUNNY     61  46  57 SW12      30.15R
DEL MAR          N/A     64  52  64 NW3       30.19R
LA JOLLA SCRIP   N/A     61  51  69 SW5       30.17R
FALLBROOK        N/A     64  50  61 SW8       30.12R
ESCONDIDO        N/A     64  44  47 W8        30.16S
SAN MARCOS       N/A     62  46  55 S6        30.16S
POWAY            N/A     65  48  55 NW5       30.18R

$$

EAST SAN DIEGO COUNTY

CITY           SKY/WX    TMP DP  RH WIND       PRES   REMARKS
RAMONA         PTSUNNY   61  47  59 W13       30.15R
SANTEE LAKES     N/A     64  47  54 SW5       30.15S
LA MESA          N/A     62  46  56 W3        30.10S
JAMUL            N/A     62  50  63 CALM      30.16S
DESCANSO N       N/A     48  42  79 W6        30.11S
CAMPO            N/A     53  45  74 SW16      30.10S

$$

ORANGE COUNTY AND THE LOS ANGELES BASIN

CITY           SKY/WX    TMP DP  RH WIND       PRES   REMARKS
JOHN WAYNE AP  MOSUNNY   64  40  41 W10       30.14S
LAGUNA BEACH     N/A     64  51  63 W3        30.10S
LAKE FOREST FR   N/A     65  41  41 W5        30.03S
HUNTINGTON BCH   N/A     64  51  62 W14       30.15S
LOS ALAMITOS   MOSUNNY   66  45  46 SW13      30.12S
FULLERTON      SUNNY     68  40  35 E3        30.11S
LONG BEACH     SUNNY     67  37  33 MISG      30.12F
L.A. AP        MOSUNNY   64  46  52 W16       30.13S
L.A. DOWNTOWN  SUNNY     67  42  40 VRB3      30.12R

$$

THE INLAND EMPIRE

CITY           SKY/WX    TMP DP  RH WIND       PRES   REMARKS
CORONA         SUNNY     66  41  40 W12       30.12
CHINO          MOSUNNY   67  42  40 SW7       30.13S
ONTARIO        MOSUNNY   63  40  42 S8        30.12S
SAN BERNARDINO PTSUNNY   64  39  39 SW8       30.12S
RIVERSIDE AP   MOSUNNY   66  43  43 W10       30.12S
MORENO VALLEY    N/A     63  45  51 W5        28.22R
MARCH ARB      SUNNY     63  40  43 VRB6      30.11S
HORSETHIEF CYN   N/A     63  39  41 CALM      30.13S
PERRIS           N/A     64  45  50 SW1       30.12F
HEMET EAST       N/A     59  37  43 NW5       30.19R
FRENCH VALLEY  MOCLDY    61  41  48 SW8       30.13S
TEMECULA         N/A     63  46  54 SW5       30.19R

$$

SAN BERNARDINO AND RIVERSIDE COUNTY MOUNTAINS

CITY           SKY/WX    TMP DP  RH WIND       PRES   REMARKS
BIG BEAR AP    SUNNY     41  25  52 W10       30.11R
ANGELUS OAKS     N/A     45  36  71 W1        30.11R
PINE COVE        N/A     41  36  83 NW3       30.18R

$$

SOUTHERN DESERT INCLUDING THE COACHELLA VALLEY

CITY           SKY/WX    TMP DP  RH WIND       PRES   REMARKS
PALM SPRINGS   SUNNY     76  33  21 NW15G28   30.03S
PALM DESERT      N/A     76  39  26 CALM      29.79S
THERMAL        SUNNY     76  33  21 VRB7      30.00S
BLYTHE         SUNNY     73  31  21 W16       29.99F
IMPERIAL AP    SUNNY     74  37  26 NW12      30.02F
EL CENTRO NAS  MOSUNNY   75  31  19 W17       30.04F
YUMA AZ        SUNNY     71  38  29 W20G28    30.04
MEXICALI       SUNNY     72  30  21 W20       30.05

$$

UPPER DESERT

CITY           SKY/WX    TMP DP  RH WIND       PRES   REMARKS
VICTORVILLE AP SUNNY     57  28  33 W16G24    30.10S
HESPERIA         N/A     58  30  34 N5        30.23S
PALMDALE       SUNNY     58  34  40 W16G24    30.14S
LANCASTER      SUNNY     56  34  43 W25G33    30.13S
EDWARDS AFB    MOSUNNY   60  27  28 SW16G23   30.08S
DAGGETT        SUNNY     66  28  24 W20G30    30.05F
29 PALMS N     MOSUNNY   65  26  23 NW18G31   30.11S
NEEDLES        PTSUNNY   72  33  24 NW16G24   29.95S

$$

REGIONAL REPORTS

CITY           SKY/WX    TMP DP  RH WIND       PRES   REMARKS
SANTA BARBARA  SUNNY     66  43  43 W16G24    30.14S
SANDBERG       SUNNY     42  35  76 N24G33    30.17R
LAS VEGAS NV   PTSUNNY   65  30  27 N13G23    29.95R
PHOENIX AZ     PTSUNNY   68  39  34 SW17      29.97F
TIJUANA        PTSUNNY   61  45  55 W10       30.19S
ENSENADA NW      N/A     62  32  32 W15       30.17R

$$

OFFSHORE ISLANDS

CITY           SKY/WX    TMP DP  RH WIND       PRES   REMARKS
CATALINA ARPT  SUNNY     57  42  57 W16       30.15S
SAN CLEMENTE I MOSUNNY   62  44  51 NW22G29   30.19S
SAN NICOLAS IS MOSUNNY   57  46  66 NW30G39   30.19R

$$

MARINE AND OFFSHORE BUOY REPORTS

STATION/POSITION SKY/WX   TEMP    WIND        PRES    VSBY  SWELL
                          AIR SEA DIR/SP/G                  HT/PER/DIR
                          (F)     (DEG/KT/KT) (MB)    (MI)  (FT/S/D)
TANNER BANKS               57 59  320/ 23/ 27 1022.8R         8/280/16
S CLEMENTE BASIN           57 60  300/ 17/ 21 1022.0R         7/290/10
SAN NICOLAS IS.               56                N/A           5/290/11
SO. S. ROSA ISLA           55 57  310/ 21/ 25 1022.8R         7/310/11
W. S. BARBARA CH           55 56  320/ 21/ 25 1023.1F         7/300/11
M. S. BARBARA CH                  280/ 21/ 25 1021.8          5/260/11
S. MONICA BASIN            57 58  300/ 14/ 17 1021.1R         5/270/11
S PEDRO CHANNEL               59                N/A           3/280/12
CMP PENDLETON NS              61                N/A           3/220/17
OCEANSIDE OFFSHR              60                N/A           3/200/17
TORREY PINES OTR              61                N/A           3/190/17
POINT LOMA SOUTH              61                N/A           5/190/17

$$




USA.gov is the U.S. government's official web portal to all federal, state and local government web resources and services.